Temperature
21 21 21 22 16 12 9 10 10 9 7 7 7 7 6 5 6 5 4 5 7 8 9 9 9 10 10 10 10 10 10 10 10 10 10 10 11 11 12 12 12 12 12 13 13 13 13 13 14
21 21 21 19 13 11 10 9 9 8 8 7 7 7 7 6 5 5 5 6 7 8 9 9 9 9 9 9 9 9 9 9 9 9 9 9 9 10 10 11 11 11 11 12 12 12 12 13 13
21 21 19 11 9 9 10 9 8 7 8 8 7 7 6 5 5 5 5 6 7 8 9 9 9 9 9 9 9 9 8 8 7 7 7 7 7 8 7 8 9 9 10 10 10 10 11 12 12
22 21 14 10 7 8 8 8 8 8 8 8 7 5 4 4 5 5 5 6 7 8 8 9 9 9 9 8 8 7 7 6 6 6 5 5 6 6 6 6 7 7 7 8 8 9 9 10 11
22 18 10 8 8 8 8 8 9 8 7 7 6 4 3 4 4 5 6 7 8 8 8 9 8 8 8 7 7 6 6 5 5 5 5 5 5 5 5 5 5 5 6 6 6 7 8 8 9
21 13 10 8 8 8 8 8 8 7 7 6 5 4 3 3 4 5 6 7 7 8 8 8 8 7 7 6 5 5 5 5 5 5 5 5 5 5 5 5 5 5 5 5 5 6 6 7 7
17 10 8 8 8 8 8 8 7 6 6 6 6 3 2 3 4 5 6 7 7 7 7 7 7 6 6 5 5 4 4 4 4 4 4 4 4 4 4 4 4 4 4 4 4 4 5 5 6
17 10 9 9 9 8 8 8 7 7 6 6 6 4 3 4 4 5 6 6 7 7 7 6 5 5 5 4 4 3 3 3 3 3 3 3 3 3 3 3 3 3 3 3 4 4 4 4 5
18 11 10 10 9 8 8 7 6 6 6 5 5 5 4 4 5 5 6 7 7 6 6 5 4 4 3 3 3 3 3 2 2 2 2 2 3 3 3 3 3 3 3 3 3 3 3 4 4
15 10 10 10 9 7 7 7 5 5 5 4 4 4 4 5 5 6 6 6 6 5 4 4 3 3 3 3 2 2 2 2 2 2 2 2 2 2 2 2 2 2 2 2 2 2 2 3 3
10 8 8 8 9 8 7 6 6 6 4 4 4 5 5 5 5 6 6 5 4 4 3 3 3 3 2 2 2 2 2 2 1 1 1 1 1 1 1 1 1 1 1 1 1 1 2 2 2
8 8 9 9 9 8 7 6 6 6 6 6 6 6 5 5 5 5 5 4 3 3 3 2 2 2 2 2 1 1 1 1 1 0 0 -0 -0 -0 -0 -0 -1 -1 -1 -1 -1 -0 -0 0 1
8 8 8 9 9 8 7 6 6 6 6 6 5 5 5 5 5 5 4 3 2 2 2 2 2 2 1 1 1 1 0 0 -0 -1 -1 -1 -1 -2 -2 -2 -2 -3 -3 -3 -2 -2 -2 -1 -1
7 8 8 8 8 8 6 5 6 5 6 5 5 5 5 5 5 4 3 2 2 2 2 1 1 1 1 1 1 0 -0 -1 -1 -2 -2 -2 -3 -3 -3 -4 -4 -4 -4 -4 -4 -4 -3 -3 -2
10 8 8 8 8 7 7 6 5 5 5 5 5 5 5 5 4 3 3 2 1 1 1 1 1 1 1 0 0 -1 -1 -2 -2 -3 -3 -4 -4 -5 -5 -5 -6 -6 -6 -6 -5 -5 -5 -4 -4
10 9 10 9 8 7 7 8 6 6 5 5 5 5 4 4 4 3 2 2 1 1 0 0 0 0 0 0 -0 -1 -2 -2 -3 -4 -4 -5 -5 -6 -6 -7 -7 -7 -7 -7 -7 -6 -6 -5 -5
11 11 12 9 7 7 6 7 6 5 5 4 5 4 4 4 3 3 2 1 1 0 -0 -0 -0 -0 -0 -0 -1 -2 -2 -3 -4 -5 -5 -6 -6 -7 -7 -7 -8 -8 -8 -8 -8 -8 -8 -7 -6
14 13 12 11 8 6 6 5 5 5 5 4 5 4 4 4 3 3 2 1 0 -1 -1 -1 -1 -1 -1 -1 -2 -2 -3 -4 -5 -5 -6 -7 -7 -8 -8 -8 -9 -9 -9 -9 -9 -9 -9 -9 -8
14 13 12 11 8 7 6 5 5 5 4 4 4 4 4 4 3 2 2 1 -0 -1 -1 -1 -1 -1 -2 -2 -3 -3 -4 -5 -5 -6 -7 -8 -8 -9 -9 -10 -10 -10 -10 -11 -11 -10 -10 -10 -10
13 13 12 10 9 8 7 6 5 4 4 4 4 5 4 4 3 2 1 0 -1 -1 -1 -1 -1 -2 -3 -4 -4 -5 -5 -6 -6 -7 -7 -8 -9 -9 -10 -10 -11 -11 -12 -12 -11 -11 -11 -11 -11
13 13 12 11 9 8 7 7 5 4 4 4 5 5 5 4 3 2 1 -0 -1 -1 -1 -1 -2 -3 -3 -4 -5 -5 -5 -6 -6 -7 -8 -9 -10 -10 -11 -11 -12 -12 -13 -13 -13 -13 -13 -13 -12
13 12 12 10 9 7 8 8 8 4 3 3 4 4 4 4 3 1 0 -1 -1 -1 -1 -2 -2 -3 -4 -5 -5 -6 -7 -7 -8 -9 -9 -9 -10 -11 -11 -12 -12 -13 -13 -13 -13 -14 -13 -13 -13
12 11 11 10 9 8 7 7 7 4 4 3 3 4 4 3 2 1 -0 -1 -1 -1 -2 -2 -3 -4 -4 -5 -6 -6 -7 -8 -9 -9 -9 -10 -11 -11 -12 -13 -13 -13 -14 -14 -14 -14 -14 -14 -14
11 10 9 7 7 9 9 8 9 4 4 4 3 3 4 2 1 1 -0 -1 -1 -2 -2 -2 -3 -4 -4 -5 -6 -7 -8 -8 -9 -9 -10 -11 -11 -12 -12 -13 -13 -13 -14 -14 -14 -14 -14 -14 -13
11 11 11 11 10 11 8 8 8 7 4 4 3 3 3 2 1 0 -0 -1 -1 -2 -2 -3 -3 -4 -5 -6 -7 -8 -8 -9 -9 -10 -11 -12 -12 -12 -12 -13 -13 -13 -13 -13 -14 -14 -14 -13 -13
11 12 12 12 10 9 8 7 7 5 4 4 4 3 2 1 1 0 -0 -1 -2 -2 -2 -3 -4 -5 -5 -6 -7 -8 -8 -9 -10 -11 -12 -12 -12 -13 -13 -13 -13 -13 -13 -13 -13 -14 -13 -13 -13
11 9 10 8 8 8 7 7 7 3 3 2 2 2 2 1 1 0 -1 -2 -2 -2 -3 -4 -4 -5 -6 -6 -7 -7 -8 -9 -10 -11 -12 -12 -12 -13 -12 -12 -12 -13 -13 -13 -13 -13 -13 -13 -12
10 7 7 8 10 9 8 8 8 7 3 1 0 1 1 1 0 -0 -1 -2 -2 -3 -3 -4 -5 -6 -6 -7 -7 -8 -9 -10 -11 -12 -12 -12 -12 -12 -12 -12 -12 -12 -12 -12 -13 -13 -12 -12 -11
9 9 7 6 7 8 8 10 8 8 5 2 1 2 2 1 0 -1 -2 -2 -2 -3 -4 -4 -5 -6 -6 -7 -7 -8 -9 -10 -11 -12 -12 -12 -12 -12 -12 -11 -11 -11 -11 -11 -12 -11 -11 -11 -11
10 9 7 9 8 6 6 9 8 6 5 4 3 2 2 1 -0 -1 -1 -2 -3 -3 -4 -5 -5 -6 -6 -7 -7 -8 -9 -10 -11 -12 -12 -12 -12 -12 -11 -11 -11 -11 -11 -11 -11 -11 -11 -11 -10
Wind_Speed
6 6 4 5 8 10 6 4 3 5 5 2 3 7 9 7 6 6 2 12 17 19 22 25 28 28 28 29 29 29 30 30 30 30 30 30 31 31 31 32 32 31 31 31 31 30 30 30 29
5 5 7 7 7 7 5 4 5 4 7 5 4 6 7 7 5 5 5 12 16 18 22 24 27 28 28 29 29 29 29 30 30 30 30 30 30 31 31 32 32 32 31 30 30 30 30 30 30
7 9 7 7 7 5 4 3 5 5 6 4 5 6 5 5 4 4 6 11 14 19 23 25 27 27 28 28 29 29 29 29 29 29 29 29 30 30 30 31 31 31 31 31 30 30 30 30 30
6 7 8 10 9 4 3 3 5 7 5 6 5 6 5 6 4 5 6 9 12 19 23 25 27 27 27 27 28 28 28 28 28 28 28 28 29 29 29 30 31 31 31 30 30 30 30 30 30
5 7 9 8 6 4 4 3 2 4 4 4 5 6 4 4 6 6 6 10 13 17 22 25 26 26 26 26 28 28 28 28 28 28 28 28 29 29 29 29 30 30 30 30 30 30 30 30 30
6 6 8 6 5 4 3 3 4 6 5 5 6 6 3 3 4 4 6 10 14 16 20 23 26 26 25 25 26 27 27 27 27 28 29 29 30 30 29 30 30 30 30 29 29 30 30 30 29
6 7 7 8 7 5 4 3 4 6 5 3 6 6 5 3 3 4 6 9 13 17 20 23 24 24 24 24 26 27 26 27 26 27 28 29 30 30 30 30 30 30 29 29 29 30 30 30 29
6 7 7 6 7 5 5 4 4 4 5 3 4 8 6 5 5 4 4 7 10 14 18 21 23 24 24 22 24 26 25 25 25 26 27 27 27 28 28 29 30 30 29 29 29 30 30 29 28
5 6 5 6 8 7 6 5 3 3 6 4 4 4 6 8 5 2 2 5 7 11 15 20 21 21 21 19 20 23 21 22 22 23 25 24 23 23 24 27 28 29 29 29 29 29 29 28 26
7 6 4 1 7 8 6 6 8 5 6 4 5 5 6 6 4 3 7 9 10 11 9 15 17 18 19 17 16 19 17 19 20 21 22 22 21 21 22 24 25 27 27 28 28 29 26 24 22
7 7 5 4 5 7 6 6 6 9 4 7 9 10 7 6 4 6 7 6 7 7 8 11 14 16 17 17 15 17 17 18 18 20 21 21 20 19 20 20 20 22 23 23 25 24 22 21 21
8 6 5 5 5 6 6 6 5 3 4 8 11 10 7 7 6 6 6 6 6 6 7 8 12 15 16 17 16 16 17 16 17 18 20 20 18 18 19 18 19 20 20 21 21 20 22 22 22
7 5 4 7 10 7 7 6 5 3 5 9 9 8 8 7 6 5 5 6 5 6 7 8 10 15 16 16 15 16 17 16 18 18 19 20 18 17 18 17 18 19 20 20 20 20 21 20 20
6 8 7 6 6 4 6 4 5 4 6 9 8 8 7 7 6 5 4 4 4 5 7 9 8 14 15 15 15 15 17 17 18 18 20 20 19 18 18 17 16 18 20 20 19 20 18 17 17
6 7 6 3 4 3 6 2 6 8 9 9 8 7 6 5 5 5 4 2 2 4 6 9 8 13 14 15 16 16 18 18 17 17 19 19 19 19 18 16 15 17 20 20 19 18 16 14 14
5 5 2 2 4 4 3 5 5 10 11 10 8 7 6 5 5 5 5 3 2 4 6 8 10 12 13 15 16 17 18 18 17 18 18 18 19 19 18 15 14 19 19 17 15 10 12 13 13
4 2 1 3 5 5 5 7 4 9 12 10 9 8 7 5 5 5 5 3 2 4 6 6 9 10 13 15 16 17 17 17 17 18 17 19 19 20 19 16 15 19 16 14 13 10 12 13 14
2 2 2 4 6 6 6 8 5 10 12 11 10 9 8 8 7 6 5 3 1 4 5 6 7 9 12 13 13 13 13 15 16 17 18 20 20 21 20 16 16 18 12 8 9 12 12 12 13
3 3 3 2 5 7 9 10 8 10 11 11 10 9 9 8 5 6 5 2 2 4 5 6 6 8 10 6 6 7 8 7 11 15 18 20 20 21 20 16 16 16 10 10 11 12 13 11 11
3 2 2 2 3 5 6 9 7 8 10 10 12 12 10 7 6 6 5 3 2 5 5 6 7 7 9 8 7 6 7 7 11 15 17 18 21 22 20 18 16 15 10 10 10 12 10 11 9
2 1 2 3 2 2 6 8 2 3 5 6 8 8 8 9 9 7 5 4 3 4 5 7 7 7 10 12 10 10 5 4 5 7 7 17 21 21 21 20 18 16 10 10 11 11 11 12 11
1 1 1 1 2 4 3 6 5 3 4 7 9 9 9 8 7 5 4 3 2 3 5 6 7 7 10 12 8 9 9 10 10 7 9 18 20 21 21 20 20 17 14 11 12 10 10 11 11
1 1 1 2 1 3 2 2 7 1 6 10 10 9 9 8 8 6 4 2 2 4 5 6 6 6 9 11 8 8 8 7 9 9 9 10 16 19 20 21 19 17 15 12 11 12 11 9 10
0 4 4 4 4 4 2 3 8 5 7 6 7 9 9 8 7 6 4 3 3 4 5 6 7 7 8 9 8 9 10 10 13 13 11 10 9 13 17 21 19 18 16 13 13 11 12 11 11
5 5 6 7 5 5 1 3 9 4 6 5 7 10 9 9 7 5 3 2 4 5 5 6 8 8 9 9 9 9 9 9 10 12 12 13 12 12 12 19 17 17 18 18 16 12 12 11 11
3 4 4 3 5 7 2 6 7 0 0 1 4 8 9 8 7 6 4 1 2 5 6 7 8 8 9 9 9 8 8 7 8 10 11 12 11 12 19 20 21 22 21 19 15 13 13 10 10
3 4 3 5 2 5 7 8 8 3 1 2 6 8 9 8 7 6 4 1 2 4 5 7 8 9 9 9 9 8 7 8 10 10 10 10 12 17 21 22 21 21 21 18 14 12 12 10 11
3 7 5 3 2 6 8 7 6 8 9 8 9 10 9 8 7 6 4 1 2 3 5 7 7 8 8 9 8 10 8 10 11 10 12 12 15 18 19 19 19 19 19 17 14 12 11 10 11
4 4 4 4 3 3 6 9 7 7 7 11 14 12 11 10 8 6 4 1 2 4 5 6 7 8 8 8 8 9 9 10 11 9 11 13 14 17 16 18 19 20 19 16 12 10 10 9 9
5 6 7 3 4 4 4 9 3 5 5 8 10 10 10 10 8 6 4 0 2 4 6 7 7 7 8 7 8 9 9 9 10 11 12 15 14 17 17 17 18 19 18 15 12 11 10 9 10
Wind_Direction
40 69 63 54 61 61 64 33 76 89 75 59 52 85 97 77 84 128 178 17 3 358 357 2 13 15 17 17 17 17 16 16 15 14 13 13 11 10 9 7 5 3 2 1 359 358 357 355 353
58 64 50 55 75 76 41 23 61 73 131 140 72 74 75 78 85 88 29 10 7 6 4 5 16 16 17 17 17 16 16 15 14 13 13 12 10 8 7 5 3 1 360 359 357 356 355 353 351
70 57 64 63 74 101 112 53 96 89 111 121 83 58 68 48 53 61 26 12 12 17 13 8 17 17 17 17 17 16 15 14 14 13 12 11 9 7 6 4 1 360 358 356 356 354 352 350 349
72 56 61 64 73 40 82 114 127 125 82 60 86 59 51 8 43 71 40 23 22 23 19 14 19 17 17 17 17 15 14 14 13 12 12 11 8 6 5 3 360 358 356 354 353 351 350 348 346
60 74 69 65 66 53 32 26 77 89 64 55 86 92 70 28 48 67 51 35 32 28 25 19 19 18 16 16 16 14 14 13 12 11 10 9 7 4 3 1 358 356 354 352 351 349 347 346 345
60 67 79 97 111 128 64 34 81 84 95 94 96 100 95 60 66 60 51 44 41 35 29 25 20 18 16 15 15 13 13 12 12 11 10 8 5 2 1 360 356 355 353 351 349 347 345 344 343
84 75 96 122 135 145 137 83 83 108 104 112 121 108 135 136 128 93 56 47 46 41 34 27 22 18 15 14 15 13 13 12 12 10 8 7 3 0 359 357 354 354 352 350 348 346 344 342 341
100 94 93 122 136 141 140 106 88 102 115 53 95 135 166 174 144 107 58 37 44 44 37 27 23 18 12 11 14 12 12 11 11 8 6 5 1 358 356 353 351 352 350 350 347 345 343 341 339
75 72 104 153 157 152 147 121 96 70 93 52 54 125 144 137 131 104 41 31 32 34 34 26 20 17 12 12 14 11 11 9 9 6 4 2 356 352 353 349 349 350 348 348 345 343 342 341 337
53 95 126 141 149 142 131 132 147 110 87 75 64 82 109 119 139 101 50 34 27 20 17 22 17 14 15 13 9 10 6 2 2 1 1 358 353 350 351 346 347 348 346 346 343 342 341 338 333
58 102 113 71 104 113 112 123 136 127 145 174 167 161 152 144 131 85 64 49 33 8 359 7 12 14 16 10 7 9 1 359 359 358 358 355 351 348 346 343 343 343 344 342 339 338 336 332 328
81 58 87 106 91 93 112 117 117 163 196 163 160 155 157 148 117 96 79 55 29 4 349 351 11 15 15 12 5 7 359 355 355 353 356 354 350 346 344 341 338 341 341 337 335 331 328 326 323
75 90 58 79 81 86 91 94 115 104 110 122 136 144 152 141 123 110 96 67 28 358 341 342 12 14 12 10 5 1 355 352 349 350 353 353 348 343 341 336 335 336 337 334 331 328 325 324 322
92 92 94 76 79 84 106 106 111 154 138 136 153 163 161 153 147 130 95 59 15 349 341 340 12 14 10 6 360 356 351 348 348 348 348 349 345 340 338 333 331 334 334 330 327 322 321 321 318
100 87 76 84 92 110 113 150 204 171 153 162 179 181 171 164 154 142 126 104 9 348 339 339 6 9 6 3 358 352 346 343 341 340 341 342 341 337 335 329 326 331 330 327 326 320 323 320 317
85 85 84 184 122 134 136 263 192 157 161 182 195 198 188 174 160 148 145 140 32 353 336 335 356 358 1 360 354 347 340 337 333 333 333 335 336 335 332 325 322 327 327 327 325 324 326 320 317
55 86 250 206 179 154 188 247 185 167 174 192 201 205 200 189 173 165 163 153 26 343 322 322 335 350 355 354 349 342 335 330 328 329 330 333 334 333 329 320 320 325 324 323 324 327 322 319 316
192 211 253 249 194 169 214 248 207 184 188 199 204 207 207 207 201 176 172 166 346 328 311 309 326 347 353 350 344 337 331 326 326 327 330 331 331 330 326 319 322 323 320 319 319 319 319 314 314
151 179 249 268 167 187 230 251 235 192 197 205 209 211 214 218 190 164 169 177 317 311 316 317 337 346 353 348 343 333 328 319 317 326 329 327 327 327 322 320 321 319 316 316 316 320 318 317 318
134 148 270 287 166 214 269 266 246 191 202 205 205 208 209 201 175 182 188 201 289 303 317 333 347 341 346 340 326 313 309 305 314 322 320 325 328 327 326 323 319 316 314 312 314 317 315 317 324
78 148 274 280 3 30 328 305 222 204 193 200 204 203 197 195 195 197 203 225 270 308 330 343 338 336 340 339 331 329 309 300 319 324 317 326 327 324 321 318 317 313 311 310 309 306 312 315 312
8 268 212 161 19 317 9 310 284 219 227 218 209 197 192 188 179 182 194 220 280 330 340 339 335 335 339 341 336 337 343 335 328 324 320 325 326 323 322 321 317 313 312 306 305 314 304 303 307
260 14 122 144 149 330 356 235 290 89 260 241 217 198 187 177 167 168 165 150 32 2 345 340 338 334 337 338 333 329 321 312 318 320 318 320 324 323 322 321 316 313 311 304 300 301 295 295 294
178 81 72 69 71 332 245 201 285 227 229 248 209 188 178 165 153 145 126 77 22 357 345 344 345 338 334 333 328 324 318 319 326 331 329 329 324 321 318 319 313 309 306 301 299 295 291 290 288
51 54 10 356 359 286 162 236 253 264 217 225 205 185 170 157 151 147 122 48 356 343 346 350 349 338 332 329 326 319 314 316 322 328 329 328 327 324 317 316 312 308 302 300 298 295 291 286 283
41 92 116 281 282 298 301 251 261 155 81 241 176 157 151 153 154 146 126 87 328 338 351 352 343 332 327 327 323 311 314 323 323 322 322 320 319 316 314 315 313 307 303 302 298 296 289 285 282
98 95 135 146 294 289 283 283 301 141 217 147 145 152 165 164 157 147 139 150 323 345 351 343 332 325 323 321 318 317 325 325 323 320 318 316 316 320 319 316 313 312 310 306 300 293 289 286 284
76 140 101 115 308 296 295 285 268 251 237 212 197 188 179 166 159 156 167 210 316 348 340 332 325 318 313 315 320 338 326 324 323 322 320 319 320 320 320 321 322 321 319 315 308 299 293 290 289
128 118 114 117 164 212 293 280 226 231 224 214 207 191 178 173 170 172 184 217 344 348 337 325 320 316 313 314 318 324 323 324 325 322 320 321 322 324 325 327 330 332 333 333 329 323 315 309 309
179 182 157 172 224 200 235 272 253 217 240 215 196 178 170 166 163 169 178 189 352 337 325 319 315 312 309 313 323 325 325 325 325 323 322 324 325 328 330 332 336 342 345 349 351 345 342 337 335
Height
1533 1534 1536 1537 1546 1572 1596 1600 1599 1603 1607 1610 1609 1609 1612 1617 1620 1629 1627 1622 1620 1617 1614 1610 1607 1603 1600 1596 1593 1589 1585 1582 1578 1575 1572 1569 1566 1563 1560 1558 1556 1553 1551 1549 1548 1546 1545 1544 1543
1534 1536 1538 1541 1562 1590 1601 1602 1602 1604 1607 1609 1610 1612 1614 1618 1622 1623 1623 1621 1619 1617 1614 1610 1607 1603 1599 1596 1592 1588 1584 1580 1577 1573 1570 1567 1564 1560 1557 1555 1552 1550 1547 1545 1543 1542 1541 1540 1539
1536 1537 1541 1555 1583 1597 1602 1604 1605 1607 1609 1609 1611 1614 1616 1621 1623 1623 1623 1621 1619 1617 1613 1610 1607 1603 1599 1595 1590 1586 1582 1578 1574 1571 1568 1564 1561 1558 1554 1551 1548 1546 1543 1541 1539 1537 1535 1535 1534
1538 1539 1550 1573 1597 1604 1603 1605 1606 1607 1609 1610 1612 1616 1619 1622 1623 1623 1622 1621 1619 1616 1613 1609 1606 1602 1597 1593 1589 1584 1580 1576 1572 1569 1565 1562 1558 1555 1552 1548 1545 1542 1540 1537 1534 1532 1530 1529 1528
1539 1542 1566 1592 1603 1605 1605 1605 1606 1607 1609 1612 1613 1618 1622 1623 1623 1623 1622 1620 1618 1615 1612 1608 1604 1600 1596 1591 1587 1583 1579 1575 1571 1567 1564 1560 1556 1553 1549 1546 1543 1539 1536 1533 1531 1528 1526 1524 1522
1540 1549 1579 1602 1606 1607 1607 1607 1607 1609 1611 1614 1615 1619 1623 1624 1623 1623 1622 1619 1617 1614 1610 1606 1602 1598 1594 1589 1585 1581 1577 1573 1569 1566 1562 1559 1555 1551 1547 1543 1540 1536 1533 1530 1527 1524 1522 1519 1517
1545 1562 1589 1600 1605 1607 1608 1607 1608 1609 1612 1615 1616 1619 1622 1623 1623 1623 1621 1619 1616 1613 1609 1605 1600 1596 1592 1588 1583 1579 1575 1571 1568 1564 1560 1557 1553 1550 1545 1541 1537 1533 1529 1526 1523 1520 1517 1514 1512
1550 1564 1589 1596 1600 1604 1606 1607 1608 1610 1612 1615 1616 1617 1621 1622 1623 1622 1620 1618 1615 1611 1607 1603 1599 1594 1590 1586 1582 1578 1574 1570 1566 1562 1558 1554 1550 1547 1543 1539 1535 1530 1526 1522 1519 1515 1512 1509 1506
1554 1571 1589 1593 1596 1601 1603 1605 1608 1610 1611 1613 1615 1617 1619 1621 1622 1621 1619 1616 1613 1610 1606 1601 1596 1592 1588 1584 1580 1576 1571 1567 1563 1559 1555 1551 1547 1543 1539 1535 1531 1527 1523 1519 1515 1511 1507 1503 1501
1559 1581 1589 1591 1591 1596 1600 1603 1606 1609 1611 1614 1615 1617 1619 1620 1621 1619 1617 1614 1611 1608 1603 1598 1594 1589 1586 1582 1578 1574 1570 1566 1561 1557 1553 1549 1544 1540 1536 1532 1527 1523 1519 1515 1511 1506 1502 1498 1495
1571 1585 1589 1591 1592 1595 1599 1603 1606 1608 1611 1612 1613 1615 1617 1619 1619 1617 1615 1613 1610 1607 1602 1597 1593 1589 1585 1581 1577 1573 1569 1565 1560 1555 1550 1546 1542 1537 1532 1527 1522 1517 1513 1508 1504 1501 1497 1493 1489
1579 1588 1590 1593 1595 1597 1600 1603 1606 1607 1609 1610 1612 1615 1616 1617 1617 1616 1614 1612 1609 1605 1601 1596 1592 1589 1585 1581 1576 1572 1568 1563 1558 1553 1547 1542 1538 1533 1528 1523 1518 1512 1507 1503 1498 1494 1491 1487 1484
1584 1591 1593 1595 1597 1599 1601 1604 1605 1607 1608 1610 1613 1614 1616 1616 1616 1615 1613 1611 1608 1604 1600 1595 1592 1588 1584 1580 1575 1571 1566 1561 1556 1551 1545 1540 1534 1529 1523 1518 1513 1509 1503 1498 1493 1489 1484 1480 1477
1588 1591 1595 1598 1598 1600 1602 1605 1606 1607 1609 1610 1612 1613 1614 1615 1614 1613 1612 1610 1607 1603 1599 1595 1591 1587 1583 1579 1574 1569 1564 1559 1554 1548 1543 1537 1531 1525 1520 1514 1509 1504 1499 1494 1489 1484 1479 1474 1470
1590 1594 1598 1599 1600 1601 1603 1606 1605 1605 1607 1609 1611 1612 1613 1613 1613 1612 1611 1608 1605 1602 1598 1593 1589 1586 1582 1577 1572 1567 1562 1557 1551 1545 1539 1533 1527 1522 1516 1510 1505 1500 1495 1490 1484 1479 1474 1469 1464
1592 1596 1598 1600 1600 1602 1606 1602 1601 1602 1604 1606 1608 1610 1610 1611 1611 1611 1609 1607 1604 1601 1596 1592 1588 1584 1580 1575 1570 1565 1559 1553 1547 1541 1535 1529 1524 1518 1512 1506 1501 1496 1490 1485 1479 1474 1468 1463 1458
1594 1596 1595 1599 1600 1601 1603 1601 1599 1600 1602 1604 1605 1607 1608 1609 1609 1609 1607 1605 1603 1599 1594 1590 1586 1582 1578 1573 1568 1563 1557 1550 1544 1538 1532 1526 1520 1514 1508 1502 1497 1491 1485 1480 1475 1470 1464 1458 1453
1591 1593 1593 1595 1597 1600 1602 1599 1597 1598 1599 1600 1602 1604 1605 1606 1607 1607 1606 1604 1601 1597 1592 1588 1584 1580 1575 1570 1565 1559 1553 1547 1541 1535 1529 1523 1516 1510 1504 1498 1492 1487 1481 1475 1471 1465 1460 1455 1449
1587 1590 1592 1593 1594 1598 1598 1595 1593 1594 1596 1597 1599 1600 1602 1603 1605 1605 1604 1602 1598 1595 1590 1586 1582 1577 1572 1565 1559 1553 1547 1541 1536 1530 1525 1518 1512 1506 1499 1493 1487 1482 1476 1471 1466 1461 1455 1451 1446
1588 1590 1592 1594 1594 1596 1594 1592 1588 1589 1590 1591 1594 1596 1598 1600 1602 1602 1601 1599 1596 1592 1588 1584 1579 1574 1569 1563 1556 1550 1544 1537 1532 1526 1520 1514 1508 1502 1495 1489 1483 1477 1471 1466 1461 1457 1451 1446 1444
1589 1589 1591 1593 1594 1595 1595 1587 1588 1588 1588 1590 1591 1593 1595 1597 1599 1599 1598 1596 1593 1589 1585 1581 1577 1572 1566 1560 1554 1547 1540 1534 1527 1520 1514 1509 1503 1497 1491 1484 1478 1472 1467 1461 1457 1452 1448 1442 1440
1590 1588 1589 1592 1596 1600 1598 1597 1581 1587 1588 1587 1587 1589 1591 1594 1596 1596 1595 1593 1590 1587 1583 1579 1575 1570 1564 1558 1551 1544 1536 1530 1523 1517 1510 1505 1499 1493 1486 1480 1474 1468 1462 1457 1452 1448 1444 1439 1435
1589 1588 1589 1592 1595 1599 1601 1601 1586 1589 1587 1583 1583 1584 1588 1590 1592 1593 1592 1590 1587 1584 1580 1577 1573 1567 1561 1555 1549 1542 1535 1528 1521 1514 1507 1500 1494 1489 1483 1476 1470 1464 1458 1452 1447 1442 1438 1434 1431
1588 1590 1594 1598 1601 1599 1595 1597 1587 1588 1582 1578 1578 1581 1584 1587 1589 1590 1589 1587 1585 1582 1578 1575 1570 1565 1559 1553 1546 1540 1533 1525 1518 1511 1503 1496 1490 1484 1479 1472 1466 1459 1453 1447 1441 1436 1432 1428 1425
1590 1594 1600 1597 1599 1596 1597 1595 1584 1576 1576 1576 1576 1578 1581 1584 1586 1586 1586 1584 1582 1579 1576 1572 1567 1561 1556 1550 1544 1537 1531 1524 1517 1510 1502 1495 1488 1481 1474 1468 1461 1454 1447 1441 1435 1430 1426 1422 1419
1592 1593 1604 1607 1608 1604 1598 1595 1578 1576 1575 1574 1574 1576 1579 1581 1583 1583 1583 1581 1579 1577 1573 1569 1564 1559 1553 1547 1541 1535 1528 1522 1516 1509 1503 1495 1488 1480 1473 1465 1457 1449 1442 1435 1429 1424 1419 1416 1414
1594 1601 1600 1610 1611 1613 1601 1589 1576 1576 1574 1574 1574 1575 1577 1579 1580 1581 1580 1578 1577 1574 1571 1566 1561 1556 1551 1545 1538 1533 1527 1520 1514 1508 1502 1495 1487 1480 1472 1462 1453 1444 1436 1429 1423 1418 1414 1411 1409
1594 1600 1608 1609 1608 1609 1599 1591 1580 1569 1571 1572 1571 1572 1573 1576 1577 1577 1577 1576 1574 1572 1568 1564 1559 1554 1549 1543 1537 1531 1525 1519 1512 1506 1500 1493 1486 1478 1470 1460 1451 1442 1433 1425 1419 1414 1411 1408 1406
1597 1600 1604 1612 1611 1611 1610 1584 1566 1563 1562 1564 1564 1566 1569 1572 1574 1574 1574 1573 1572 1569 1566 1562 1557 1552 1547 1541 1535 1529 1523 1517 1511 1505 1498 1492 1485 1477 1469 1461 1452 1443 1434 1426 1419 1415 1411 1408 1406
1592 1594 1602 1604 1606 1613 1613 1585 1561 1560 1559 1559 1560 1563 1567 1570 1571 1572 1571 1571 1569 1566 1563 1559 1555 1550 1545 1539 1534 1528 1522 1516 1509 1503 1497 1491 1484 1477 1470 1462 1454 1446 1438 1431 1424 1419 1414 1411 1407